Regional Weather Roundup
Issued by NWS Burlington, VT

Home | Current Version | Previous Version | Text Only | Print | Product List | Glossary On
Versions: 1 2 3 4 5 6 7 8 9 10 11 12 13 14 15 16 17 18 19 20 21 22 23 24 25 26 27 28 29 30 31 32 33 34 35 36 37 38 39 40 41 42 43 44 45 46 47 48 49 50
000
ASUS41 KBTV 292330
RWRBTV
VERMONT REGIONAL WEATHER ROUNDUP
NATIONAL WEATHER SERVICE BURLINGTON VT
700 PM EDT FRI JUL 29 2016

NOTE: "FAIR" INDICATES FEW OR NO CLOUDS BELOW 12,000 FEET WITH NO
SIGNIFICANT WEATHER AND/OR OBSTRUCTIONS TO VISIBILITY.

* THESE REPORTS ARE NOT UNDER NWS QUALITY CONTROL AND/OR DO NOT
  REPORT WEATHER SUCH AS PRECIPITATION AND FOG.

VTZ001>019-300000-
_____VERMONT_____


CITY           SKY/WX    TMP DP  RH WIND       PRES   REMARKS
BURLINGTON     FAIR      79  57  46 N12       29.93R
MONTPELIER     FAIR      76  56  49 N8        29.98R
MORRISVILLE    FAIR      75  57  53 NW6       29.96R
ST. JOHNSBURY*   N/A     77  57  50 MISG      29.91R
LYNDONVILLE*   FAIR      73  57  57 NW7       29.97R
MIDDLEBURY*    FAIR      76  55  48 N7        29.93R
RUTLAND*       FAIR      79  56  45 NW9       29.92R
SPRINGFIELD    CLOUDY    83  57  41 N5        29.90R
HIGHGATE*      FAIR      75  59  57 N6        29.94R
NEWPORT*       FAIR      71  58  63 N7        29.97R
BENNINGTON     FAIR      82  59  45 N5        29.90R
SUTTON*          N/A     72 N/A N/A MISG        N/A
MT. MANSFIELD*   N/A     63 N/A N/A N14         N/A

_____LAKE CHAMPLAIN_____


CITY           SKY/WX    TMP DP  RH WIND       PRES   REMARKS
BURTON ISLAND*   N/A     79  61  53 N1          N/A
COLCHESTER RF*   N/A    N/A N/A N/A N12         N/A
DIAMOND ISL*     N/A    N/A N/A N/A N16         N/A

$$

NYZ007-026>031-035-052-083-087-300000-
_____NORTHERN NEW YORK_____


CITY           SKY/WX    TMP DP  RH WIND       PRES   REMARKS
PLATTSBURGH    FAIR      77  57  50 N13       29.93R
SARANAC LAKE   FAIR      73  55  53 VRB3      29.98R
MASSENA        FAIR      76  55  48 N8        29.97R
OGDENSBURG*    CLOUDY    79  55  44 N7        29.97R
POTSDAM*       SUNNY     75  61  60 N6        29.98R
WATERTOWN      FAIR      81  51  35 NE9       29.94R
FT DRUM        FAIR      78  55  44 N10       29.95S
ALBANY         FAIR      84  57  39 NE8       29.88R
GLENS FALLS    FAIR      82  56  40 NE12      29.90R

$$
NHZ002-005-011-300000-
_____NEW HAMPSHIRE_____


CITY           SKY/WX    TMP DP  RH WIND       PRES   REMARKS
LEBANON        CLOUDY    84  57  39 N5        29.89R
KEENE          PTSUNNY   77  73  87 CALM      29.89R
MT WASHINGTON  PTSUNNY   54  48  82 N9G25       N/A
PLYMOUTH       FAIR      78  62  58 CALM      29.89R
WHITEFIELD     FAIR      76  57  51 N8        29.92R

$$

_____REGIONAL QUEBEC LOCATIONS_____


CITY           SKY/WX    TMP DP  RH WIND       PRES   REMARKS
MONTREAL       PTSUNNY   75  57  53 NW10      29.94R
QUEBEC CITY    MOSUNNY   73  54  49 NW10      29.92
SHERBROOKE     MOSUNNY   73  57  56 NW12      29.95R

_____REGIONAL ONTARIO LOCATIONS_____


CITY           SKY/WX    TMP DP  RH WIND       PRES   REMARKS
OTTAWA         MOSUNNY   75  54  46 N10G18    29.99S

______KEY______
VSB  - VISIBILITY IN MILES
WCI  - WIND CHILL INDEX
HX   - HEAT INDEX
$$
NNNN



USA.gov is the U.S. government's official web portal to all federal, state and local government web resources and services.